Regional Weather Roundup
Issued by NWS Little Rock, AR

Home | Current Version | Previous Version | Text Only | Print | Product List | Glossary Off
Versions: 1 2 3 4 5 6 7 8 9 10 11 12 13 14 15 16 17 18 19 20 21 22 23 24 25 26 27 28 29 30 31 32 33 34 35 36 37 38 39 40 41 42 43 44 45 46 47 48 49 50

000
ASUS44 KLZK 050205
RWRLZK

WEATHER ROUNDUP FOR ARKANSAS
NATIONAL WEATHER SERVICE LITTLE ROCK AR
800 PM CST WED MAR 04 2015

NOTE: "FAIR" INDICATES FEW OR NO CLOUDS BELOW 12,000 FEET WITH NO
SIGNIFICANT WEATHER AND/OR OBSTRUCTIONS TO VISIBILITY.

ARZ001-003-010-029-050300-
NORTHWEST ARKANSAS

CITY           SKY/WX    TMP DP  RH WIND       PRES   REMARKS
FAYETTEVILLE   LGT SNOW  21  18  88 N12G17    30.29R FOG     WCI   9
FORT SMITH     LGT SNOW  28  22  78 N10       30.30R WCI  19
HARRISON       FLURRIES  20  17  88 N6        30.28R WCI  12
BENTONVILLE    CLOUDY    21  16  79 N12       30.32R WCI   9
ROGERS         LGT SNOW  20  16  84 N10G16    30.32R FOG     WCI   9
SILOAM SPGS    CLOUDY    21  12  68 N14G21    30.32R WCI   8
HIGHFILL       LGT SNOW  21  18  88 N15       30.29R FOG     WCI   8
SPRINGDALE     CLOUDY    21  18  86 N10G17    30.32R FOG     WCI  10
$$

ARZ004-005-016-050300-
NORTH CENTRAL ARKANSAS

CITY           SKY/WX    TMP DP  RH WIND       PRES   REMARKS
BATESVILLE     CLOUDY    23  19  86 NW5       30.28R VSB 1/2 WCI  17
FLIPPIN        CLOUDY    21  16  79 CALM      30.30R
MTN HOME       LGT SNOW  20  16  84 N6        30.29R FOG     WCI  12
$$

ARZ040-041-050300-
WEST CENTRAL ARKANSAS

CITY           SKY/WX    TMP DP  RH WIND       PRES   REMARKS
MENA           CLOUDY    32  30  93 CALM      30.19R
MOUNT IDA      MIX PCPN  31  28  89 VRB7      30.17R FOG     WCI  24
$$

ARZ009-017-025-026-028-050300-
NORTHEAST ARKANSAS

CITY           SKY/WX    TMP DP  RH WIND       PRES   REMARKS
CORNING        SNOW      23  21  93 N18G24    30.31R VSB 1/2 WCI   9
JONESBORO      LGT SNOW  23  21  92 N16G24    30.24R FOG     WCI  10
NEWPORT        LGT SNOW  25  23  91 N21       30.27R FOG     WCI  11
WALNUT RIDGE   CLOUDY    23  18  80 N20G26    30.29R VSB 1/4 WCI   8
BLYTHEVILLE    LGT SNOW  24  22  91 N29G36    30.24R FOG     WCI   7
$$

ARZ022-023-033-042-044-050300-
CENTRAL ARKANSAS

CITY           SKY/WX    TMP DP  RH WIND       PRES   REMARKS
LITTLE ROCK    SLEET     31  28  89 N22G31    30.19R FOG     WCI  18
N LITTLE ROCK  CLOUDY    28  28  98 N13G26      N/A  WCI  18
JACKSONVILLE   LGTSLEET  28  27  93 N17       30.18F FOG     WCI  16
SEARCY         FLURRIES  26  23  88 N22G31    30.20  WCI  12
HOT SPRINGS    FRZ RAIN  32  29  88 N9G17     30.16R FOG     WCI  24
RUSSELLVILLE   LGT SNOW  27  24  89 N6        30.26R FOG     WCI  20
CLINTON        LGT SNOW  25  19  80 CALM      30.30R
$$

ARZ036-050300-
EAST ARKANSAS

CITY           SKY/WX    TMP DP  RH WIND       PRES   REMARKS
WEST MEMPHIS   LGT SNOW  28  27  96 N22G35    30.17R FOG     WCI  14
$$

ARZ050-053-066-070-073-050300-
SOUTHWEST ARKANSAS

CITY           SKY/WX    TMP DP  RH WIND       PRES   REMARKS
ARKADELPHIA    HVY RAIN  34  34 100 N13       30.16R FOG     WCI  25
CAMDEN         HVY RAIN  34  32  93 MISG      30.13R
TEXARKANA      RAIN      36  35  96 NE15G23   30.12R
EL DORADO      LGT RAIN  37  35  92 NE17G24   30.05R
DE QUEEN       MIX PCPN  36  32  85 N10G21    30.14R
$$

ARZ056-057-069-050300-
SOUTHEAST ARKANSAS

CITY           SKY/WX    TMP DP  RH WIND       PRES   REMARKS
PINE BLUFF     FRZ RAIN  32  29  88 N16G30    30.20R FOG     WCI  21
STUTTGART      CLOUDY    30  27  86 N26G37    30.13R WCI  16
MONTICELLO     CLOUDY    34  30  85 NE17G31   30.07R WCI  23

$$





USA.gov is the U.S. government's official web portal to all federal, state and local government web resources and services.